Location: Mercogliano
(40.9167°N, 14.7333°E)
Time: 04:56:38
(UTC+00:00)

ATLAS 2AS CENTAUR R/B - Pass Details

Date: 18 September 2020
Orbit: 939 x 1273 km, 63.7° (Epoch: 19 October)

Event Time Altitude Azimuth Distance (km) Brightness Sun altitude
Rises 19:10:31 0° 190° (S) 4,154 5.6 -23.9°
Reaches altitude 10° 19:13:23 10° 184° (S) 3,218 5.0 -24.4°
Enters shadow 19:16:57 28° 168° (SSE) 2,187 4.0 -25.0°
Exits shadow 19:24:45 27° 59° (ENE) 2,248 4.1 -26.3°
Drops below altitude 10° 19:28:11 10° 45° (NE) 3,255 5.1 -26.9°
Sets 19:31:05 0° 40° (NE) 4,206 5.7 -27.3°
